Tracking 25953 objects as of 15-Aug-2022
HD Live streaming from Space Station
objects crossing your sky now

WEOS

Track WEOS now!
10-day predictions
WEOS is classified as:


NORAD ID: 27599
Int'l Code: 2002-056C
Perigee: 792.2 km
Apogee: 808.1 km
Inclination: 98.6 °
Period: 100.7 minutes
Semi major axis: 7171 km
RCS: 0.3299 m2 (medium)
Launch date: December 14, 2002
Source: Japan (JPN)
Launch site: TANEGASHIMA SPACE CENTER (TNSTA)
aabbcc
Your satellite tracking list
Your tracking list is empty




NASA's NSSDC Master Catalog

Two Line Element Set (TLE):
1 27599U 02056C   22227.53619713  .00000083  00000-0  49357-4 0  9998
2 27599  98.6246 171.4541 0011058  96.7785 263.4656 14.29623227 25994
Source of the keplerian elements: AFSPC